When you browse on this site, cookies collect data to enhance your experience and personalize the content and advertising you see.
Visit our Privacy Policy to learn more. By continuing to use the site, you agree to this use of cookies and data.
  • In Spain
  • List of Countries
  • For 7 days
  • Water Temperature
  • Weather Map
  • Weather Widgets
  • user-avatar
    Login

    Hourly Weather Ugot

    Today, 18 August, Sunday

    Time Temperature Precipitation Wind Pressure Humidity
    00:00 +17°C° 0.1 mm 3 mps 739 mmHg 97%
    01:00 +17°C° 0.1 mm 2 mps 739 mmHg 97%
    02:00 +17°C° 0.1 mm 2 mps 739 mmHg 98%
    03:00 +17°C° 0 mm 2 mps 739 mmHg 98%
    04:00 +16°C° 0 mm 1 mps 739 mmHg 97%
    05:00 +16°C° 0 mm 1 mps 739 mmHg 97%
    06:00 +18°C° 0 mm 1 mps 739 mmHg 94%
    07:00 +19°C° 0 mm 1 mps 740 mmHg 91%
    08:00 +19°C° 0 mm 2 mps 740 mmHg 88%
    09:00 +20°C° 0.1 mm 2 mps 740 mmHg 83%
    10:00 +21°C° 0.1 mm 2 mps 740 mmHg 79%
    11:00 +23°C° 0.1 mm 2 mps 740 mmHg 75%
    12:00 +23°C° 0.2 mm 2 mps 741 mmHg 73%
    13:00 +24°C° 0.2 mm 3 mps 741 mmHg 72%
    14:00 +24°C° 0.2 mm 3 mps 741 mmHg 70%
    15:00 +24°C° 0.7 mm 3 mps 741 mmHg 74%
    16:00 +22°C° 0.7 mm 3 mps 742 mmHg 78%
    17:00 +21°C° 0.7 mm 4 mps 742 mmHg 83%
    18:00 +19°C° 0.2 mm 3 mps 742 mmHg 87%
    19:00 +18°C° 0.2 mm 3 mps 742 mmHg 91%
    20:00 +16°C° 0.2 mm 3 mps 743 mmHg 95%
    21:00 +16°C° 0 mm 2 mps 743 mmHg 95%
    22:00 +15°C° 0 mm 2 mps 743 mmHg 95%
    23:00 +15°C° 0 mm 2 mps 744 mmHg 96%

    Tomorrow, 19 August, Monday

    Time Temperature Precipitation Wind Pressure Humidity
    00:00 +14°C° 0 mm 2 mps 744 mmHg 96%
    01:00 +14°C° 0 mm 2 mps 744 mmHg 97%
    02:00 +14°C° 0 mm 2 mps 744 mmHg 98%
    03:00 +14°C° 0 mm 2 mps 745 mmHg 97%
    04:00 +13°C° 0 mm 3 mps 745 mmHg 96%
    05:00 +14°C° 0 mm 3 mps 746 mmHg 96%
    06:00 +14°C° 0 mm 3 mps 746 mmHg 93%
    07:00 +16°C° 0 mm 3 mps 746 mmHg 91%
    08:00 +17°C° 0 mm 3 mps 747 mmHg 88%
    09:00 +19°C° 0 mm 3 mps 747 mmHg 82%
    10:00 +20°C° 0 mm 3 mps 747 mmHg 76%
    11:00 +22°C° 0 mm 3 mps 747 mmHg 69%
    12:00 +24°C° 0 mm 3 mps 748 mmHg 66%
    13:00 +24°C° 0 mm 3 mps 748 mmHg 64%
    14:00 +25°C° 0 mm 2 mps 748 mmHg 61%
    15:00 +25°C° 0 mm 2 mps 748 mmHg 64%
    16:00 +25°C° 0 mm 2 mps 748 mmHg 67%
    17:00 +25°C° 0 mm 1 mps 748 mmHg 71%
    18:00 +23°C° 0 mm 1 mps 748 mmHg 75%
    19:00 +21°C° 0 mm 1 mps 749 mmHg 79%
    20:00 +20°C° 0 mm 1 mps 749 mmHg 83%
    21:00 +19°C° 0 mm 1 mps 749 mmHg 84%
    22:00 +19°C° 0 mm 1 mps 749 mmHg 85%
    23:00 +18°C° 0 mm 1 mps 749 mmHg 87%

    Day after tomorrow, 20 August, Tuesday

    Time Temperature Precipitation Wind Pressure Humidity
    00:00 +18°C° 0 mm 1 mps 749 mmHg 87%
    01:00 +18°C° 0 mm 1 mps 749 mmHg 88%
    02:00 +16°C° 0 mm 1 mps 750 mmHg 88%
    03:00 +16°C° 0 mm 1 mps 750 mmHg 88%
    04:00 +16°C° 0 mm 1 mps 750 mmHg 89%
    05:00 +16°C° 0 mm 1 mps 750 mmHg 89%
    06:00 +19°C° 0 mm 1 mps 750 mmHg 84%
    07:00 +20°C° 0 mm 2 mps 750 mmHg 79%
    08:00 +21°C° 0 mm 2 mps 751 mmHg 74%
    09:00 +24°C° 0 mm 2 mps 751 mmHg 69%
    10:00 +25°C° 0 mm 2 mps 751 mmHg 64%
    11:00 +26°C° 0 mm 2 mps 751 mmHg 59%
    12:00 +26°C° 0 mm 2 mps 751 mmHg 59%
    13:00 +27°C° 0 mm 2 mps 750 mmHg 58%
    14:00 +27°C° 0 mm 2 mps 750 mmHg 57%
    15:00 +27°C° 0 mm 2 mps 750 mmHg 61%
    16:00 +27°C° 0 mm 1 mps 750 mmHg 65%
    17:00 +27°C° 0 mm 1 mps 750 mmHg 69%
    18:00 +25°C° 0 mm 1 mps 750 mmHg 72%
    19:00 +24°C° 0 mm 1 mps 750 mmHg 75%
    20:00 +22°C° 0 mm 1 mps 750 mmHg 79%
    21:00 +22°C° 0 mm 1 mps 751 mmHg 80%
    22:00 +21°C° 0 mm 1 mps 751 mmHg 81%
    23:00 +21°C° 0 mm 1 mps 751 mmHg 82%

    21 August, Wednesday

    Time Temperature Precipitation Wind Pressure Humidity
    00:00 +21°C° 0 mm 1 mps 751 mmHg 84%
    01:00 +20°C° 0 mm 1 mps 751 mmHg 85%
    02:00 +20°C° 0 mm 1 mps 751 mmHg 87%
    03:00 +20°C° 0 mm 1 mps 751 mmHg 87%
    04:00 +20°C° 0 mm 1 mps 751 mmHg 88%
    05:00 +20°C° 0 mm 1 mps 751 mmHg 89%
    06:00 +21°C° 0 mm 1 mps 751 mmHg 83%
    07:00 +23°C° 0 mm 1 mps 751 mmHg 78%
    08:00 +25°C° 0 mm 1 mps 751 mmHg 73%
    09:00 +24°C° 0 mm 0 mps 751 mmHg 69%
    10:00 +25°C° 0 mm 0 mps 751 mmHg 65%
    11:00 +27°C° 0 mm 0 mps 751 mmHg 61%
    12:00 +29°C° 0 mm 1 mps 751 mmHg 59%
    13:00 +29°C° 0 mm 1 mps 751 mmHg 57%
    14:00 +30°C° 0 mm 1 mps 750 mmHg 55%
    15:00 +29°C° 0 mm 2 mps 750 mmHg 59%
    16:00 +29°C° 0 mm 2 mps 750 mmHg 62%
    17:00 +28°C° 0 mm 2 mps 749 mmHg 66%
    18:00 +27°C° 0 mm 2 mps 749 mmHg 69%
    19:00 +25°C° 0 mm 2 mps 749 mmHg 73%
    20:00 +24°C° 0 mm 2 mps 749 mmHg 77%
    21:00 +23°C° 0 mm 2 mps 749 mmHg 78%
    22:00 +23°C° 0 mm 2 mps 749 mmHg 80%
    23:00 +21°C° 0 mm 2 mps 749 mmHg 81%

    22 August, Thursday

    Time Temperature Precipitation Wind Pressure Humidity
    00:00 +21°C° 0 mm 2 mps 749 mmHg 82%
    01:00 +20°C° 0 mm 2 mps 749 mmHg 83%
    02:00 +20°C° 0 mm 2 mps 748 mmHg 84%
    03:00 +20°C° 0 mm 2 mps 748 mmHg 84%
    04:00 +19°C° 0 mm 2 mps 748 mmHg 85%
    05:00 +19°C° 0 mm 2 mps 748 mmHg 86%
    06:00 +20°C° 0 mm 2 mps 748 mmHg 81%
    07:00 +23°C° 0 mm 2 mps 748 mmHg 77%
    08:00 +24°C° 0 mm 2 mps 748 mmHg 72%
    09:00 +25°C° 0 mm 2 mps 748 mmHg 67%
    10:00 +26°C° 0 mm 2 mps 748 mmHg 63%
    11:00 +28°C° 0 mm 2 mps 748 mmHg 59%
    12:00 +28°C° 0 mm 2 mps 748 mmHg 57%
    13:00 +28°C° 0 mm 2 mps 748 mmHg 56%
    14:00 +28°C° 0 mm 2 mps 747 mmHg 55%
    15:00 +27°C° 0 mm 3 mps 748 mmHg 62%
    16:00 +26°C° 0 mm 4 mps 748 mmHg 70%
    17:00 +25°C° 0 mm 4 mps 748 mmHg 77%
    18:00 +23°C° 0 mm 4 mps 748 mmHg 80%
    19:00 +21°C° 0 mm 4 mps 748 mmHg 83%
    20:00 +19°C° 0 mm 4 mps 748 mmHg 85%
    21:00 +19°C° 0 mm 4 mps 749 mmHg 85%
    22:00 +19°C° 0 mm 4 mps 749 mmHg 84%
    23:00 +18°C° 0 mm 3 mps 749 mmHg 83%

    23 August, Friday

    Time Temperature Precipitation Wind Pressure Humidity
    00:00 +18°C° 0.1 mm 4 mps 749 mmHg 83%
    01:00 +18°C° 0.1 mm 4 mps 749 mmHg 83%
    02:00 +18°C° 0.1 mm 4 mps 749 mmHg 83%
    03:00 +18°C° 0.2 mm 4 mps 749 mmHg 84%
    04:00 +17°C° 0.2 mm 4 mps 749 mmHg 85%
    05:00 +17°C° 0.2 mm 4 mps 750 mmHg 86%
    06:00 +17°C° 0.1 mm 4 mps 750 mmHg 84%
    07:00 +17°C° 0.1 mm 4 mps 750 mmHg 82%
    08:00 +17°C° 0.1 mm 4 mps 750 mmHg 81%
    09:00 +18°C° 0 mm 4 mps 750 mmHg 77%
    10:00 +19°C° 0 mm 4 mps 750 mmHg 72%
    11:00 +20°C° 0 mm 4 mps 750 mmHg 68%
    12:00 +21°C° 0 mm 3 mps 750 mmHg 66%
    13:00 +21°C° 0 mm 3 mps 750 mmHg 64%
    14:00 +22°C° 0 mm 3 mps 750 mmHg 61%
    15:00 +22°C° 0 mm 3 mps 750 mmHg 64%
    16:00 +21°C° 0 mm 3 mps 750 mmHg 66%
    17:00 +21°C° 0 mm 2 mps 749 mmHg 69%
    18:00 +19°C° 0 mm 2 mps 750 mmHg 72%
    19:00 +18°C° 0 mm 2 mps 750 mmHg 75%
    20:00 +16°C° 0 mm 2 mps 750 mmHg 78%
    21:00 +16°C° 0 mm 2 mps 750 mmHg 78%
    22:00 +16°C° 0 mm 2 mps 750 mmHg 78%
    23:00 +15°C° 0 mm 2 mps 750 mmHg 78%
    Show more